Flag for France Weather past 2 weeks in Strasbourg, France

54 °F

Passing clouds.

Feels Like: 49 °F
Forecast: 48 / 54 °F
Wind: 15 mph from Southwest

Location: Strasbourg Airport

Current Time: Nov 30, 2015 at 10:38:26 PM

Latest Report: Nov 30, 2015 at 10:00 PM

Visibility: N/A

Pressure: 30.24 "Hg

Humidity: 67%

Dew point: 43 °F

Location of StrasbourgLocation

Historic Weather in Strasbourg — Graph


Strasbourg temperature yesterday

Maximum temperature yesterday: 54 °F (at 11:00 PM)
Minimum temperature yesterday: 39 °F (at 12:30 AM)
Average temperature yesterday: 46 °F

Past Weeks' High & Low Weather Summary

High64 °F (Nov 18, 1:30 PM)100% (Nov 23, 8:30 AM)30.30 "Hg (Nov 23, 8:30 AM)
Low25 °F (Nov 24, 7:30 AM)39% (Nov 16, 11:30 AM)29.45 "Hg (Nov 21, 11:00 AM)
Average45 °F79%30.01 "Hg
* Reported Nov 15 9:00 PM — Nov 30 9:30 PM, Strasbourg, Weather by CustomWeather, © 2015

Note: Actual official high and low records may vary slightly from our data, if they occured in-between our weather recording intervals... More about our weather records


Strasbourg weather history for previous 24 hours

Time TempWeatherWind HumidityBarometerVisibility
9:30 PM
Mon, Nov 30
52 °FMostly cloudy.15 mph72%30.24 "HgN/A
9:00 PM54 °FMostly cloudy.15 mph67%30.24 "HgN/A
8:30 PM52 °FMostly cloudy.17 mph77%30.24 "HgN/A
8:00 PM52 °FMostly cloudy.15 mph77%30.24 "HgN/A
7:30 PM52 °FLight rain. Mostly cloudy.13 mph82%30.24 "HgN/A
7:00 PM54 °FMostly cloudy.15 mph72%30.24 "HgN/A
6:30 PM54 °FMostly cloudy.14 mph67%30.21 "HgN/A
6:00 PM54 °FMostly cloudy.17 mph67%30.21 "HgN/A
5:30 PM54 °FMostly cloudy.17 mph67%30.21 "HgN/A
5:00 PM54 °FMostly cloudy.15 mph67%30.24 "HgN/A
4:30 PM54 °FMostly cloudy.17 mph67%30.24 "HgN/A
4:00 PM54 °FOvercast.17 mph67%30.24 "HgN/A
3:30 PM54 °FMostly cloudy.15 mph67%30.24 "HgN/A
3:00 PM55 °FMostly cloudy.23 mph59%30.24 "HgN/A
2:30 PM54 °FMostly cloudy.18 mph67%30.27 "HgN/A
2:00 PM54 °FMostly cloudy.20 mph63%30.27 "HgN/A
1:30 PM54 °FMostly cloudy.16 mph67%30.27 "HgN/A
1:00 PM54 °FMostly cloudy.15 mph67%30.27 "HgN/A
12:30 PM52 °FMostly cloudy.15 mph77%30.27 "HgN/A
12:00 PM52 °FMostly cloudy.17 mph77%30.30 "HgN/A
11:30 AM52 °FOvercast.17 mph72%30.30 "HgN/A
11:00 AM52 °FOvercast.16 mph72%30.30 "HgN/A
10:30 AM54 °FOvercast.18 mph67%30.30 "HgN/A
10:00 AM52 °FOvercast.14 mph72%30.30 "HgN/A
9:30 AM52 °FOvercast.15 mph72%30.27 "HgN/A
9:00 AM52 °FOvercast.17 mph72%30.27 "HgN/A
8:30 AM52 °FDrizzle. Overcast.18 mph72%30.27 "HgN/A
8:00 AM50 °FLight rain. Overcast.17 mph76%30.27 "HgN/A
7:30 AM52 °FLight rain. Overcast.17 mph72%30.27 "HgN/A
7:00 AM52 °FOvercast.17 mph72%30.24 "HgN/A
6:30 AM52 °FLight rain. Mostly cloudy.21 mph72%30.24 "HgN/A
6:00 AM54 °FOvercast.22 mph67%30.24 "HgN/A
5:30 AM54 °FOvercast.18 mph67%30.24 "HgN/A
4:30 AM54 °FMostly cloudy.24 mph63%30.21 "HgN/A
4:00 AM54 °FMostly cloudy.23 mph67%30.21 "HgN/A
3:30 AM54 °FOvercast.23 mph63%30.21 "HgN/A
3:00 AM54 °FMostly cloudy.25 mph63%30.21 "HgN/A
2:30 AM54 °FMostly cloudy.28 mph63%30.21 "HgN/A
1:30 AM54 °FPassing clouds.23 mph63%30.21 "HgN/A
1:00 AM54 °FMostly cloudy.20 mph63%30.21 "HgN/A
12:30 AM54 °FMostly cloudy.20 mph63%30.21 "HgN/A
12:00 AM54 °FMostly cloudy.18 mph63%30.21 "HgN/A
11:30 PM
Sun, Nov 29
54 °FMostly cloudy.20 mph63%30.21 "HgN/A
11:00 PM54 °FMostly cloudy.20 mph67%30.18 "HgN/A
10:30 PM52 °FMostly cloudy.21 mph67%30.18 "HgN/A
10:00 PM52 °FMostly cloudy.17 mph72%30.18 "HgN/A
Weather by CustomWeather, © 2015

See weather overviewHow to use our weather pages